Location: Molveno
(46.1500°N, 10.9667°E)
Time: 16:36:36
(UTC+00:00)

Cosmos 2360 Rocket - Pass Details

Date: 05 July 2020
Orbit: 832 x 846 km, 71.0° (Epoch: 11 August)

Event Time Altitude Azimuth Distance (km) Brightness Sun altitude
Rises 20:31:45 0° 214° (SW) 3,376 5.2 -11.2°
Reaches altitude 10° 20:34:12 10° 218° (SW) 2,448 4.5 -11.5°
Maximum altitude 20:39:46 64° 299° (WNW) 933 2.7 -12.1°
Drops below altitude 10° 20:45:25 10° 21° (NNE) 2,472 5.1 -12.7°
Sets 20:47:54 0° 25° (NNE) 3,413 5.8 -12.9°
